sat.trackr.live / text

‹ back to catalog

STARLINK-37311

NORAD 69161 · 2026-111P

PAYLOAD ACTIVE UNKNOWN

§ Identity

Operator
Country
US
Launch date
2026-05-21
Launch site
AFETR
Launch vehicle
Mass (kg)
RCS (m²)

Purposes: comms

External: N2YO · Heavens-Above · Gunter

§ Orbital elements

Epoch: 2026-09-19T22:47:44.022912Z

Period
93.85 min
Inclination
53.1558°
Eccentricity
0.0000763
Mean motion
15.34390549 rev/d
Perigee alt
462.2 km
Apogee alt
463.3 km
Semi-major
6,840.9 km
B*
5.8726e-4
RAAN
68.3337°
Arg perigee
75.4702°
Mean anomaly
284.6385°
Rev number
1,881

§ Raw data

STARLINK-373111 69161U 26111P   26262.94981508  .00019511  00000+0  58726-3 0  99932 69161  53.1558  68.3337 0000763  75.4702 284.6385 15.34390549 18810

JSON: /api/v1/satellites/69161 · /tle

For live sub-satellite position, see the globe view (requires WebGL).

§ Visibility from observer

Set your observer location to see the next 7 days of passes ≥ 10°. The values pass through the URL so the page stays shareable.

No JS? Fill the form by hand. The geolocation button needs JavaScript.